Hourly Weather Klawek

Today, 27 July, Tuesday

Time Temperature Precipitation Wind Pressure Humidity
00:00 +21°C° 0 mm 2 mps 749 mmHg 75%
01:00 +20°C° 0 mm 2 mps 749 mmHg 77%
02:00 +20°C° 0 mm 2 mps 749 mmHg 79%
03:00 +20°C° 0 mm 2 mps 749 mmHg 81%
04:00 +19°C° 0 mm 2 mps 749 mmHg 83%
05:00 +20°C° 0.1 mm 2 mps 750 mmHg 81%
06:00 +21°C° 0.1 mm 2 mps 750 mmHg 79%
07:00 +23°C° 0.1 mm 2 mps 750 mmHg 77%
08:00 +24°C° 0 mm 2 mps 750 mmHg 70%
09:00 +26°C° 0 mm 3 mps 750 mmHg 63%
10:00 +27°C° 0 mm 3 mps 750 mmHg 55%
11:00 +29°C° 0 mm 3 mps 750 mmHg 50%
12:00 +30°C° 0 mm 4 mps 750 mmHg 45%
13:00 +32°C° 0 mm 4 mps 750 mmHg 40%
14:00 +32°C° 0 mm 4 mps 750 mmHg 40%
15:00 +30°C° 0 mm 4 mps 750 mmHg 40%
16:00 +30°C° 0 mm 4 mps 750 mmHg 40%
17:00 +29°C° 0 mm 4 mps 750 mmHg 43%
18:00 +27°C° 0 mm 3 mps 750 mmHg 47%
19:00 +26°C° 0 mm 3 mps 750 mmHg 51%
20:00 +25°C° 0 mm 3 mps 750 mmHg 55%
21:00 +24°C° 0 mm 2 mps 750 mmHg 59%
22:00 +21°C° 0 mm 2 mps 751 mmHg 63%
23:00 +21°C° 0 mm 2 mps 751 mmHg 66%

Tomorrow, 28 July, Wednesday

Time Temperature Precipitation Wind Pressure Humidity
00:00 +20°C° 0 mm 2 mps 751 mmHg 70%
01:00 +20°C° 0 mm 1 mps 751 mmHg 73%
02:00 +20°C° 0 mm 1 mps 751 mmHg 75%
03:00 +20°C° 0 mm 1 mps 751 mmHg 78%
04:00 +19°C° 0 mm 1 mps 750 mmHg 80%
05:00 +20°C° 0 mm 2 mps 751 mmHg 75%
06:00 +21°C° 0 mm 2 mps 751 mmHg 70%
07:00 +23°C° 0 mm 2 mps 751 mmHg 65%
08:00 +25°C° 0 mm 2 mps 751 mmHg 60%
09:00 +26°C° 0 mm 2 mps 751 mmHg 55%
10:00 +27°C° 0 mm 2 mps 750 mmHg 50%
11:00 +27°C° 0 mm 3 mps 750 mmHg 51%
12:00 +26°C° 0 mm 3 mps 750 mmHg 53%
13:00 +26°C° 0 mm 3 mps 750 mmHg 55%
14:00 +27°C° 0 mm 4 mps 750 mmHg 52%
15:00 +27°C° 0 mm 4 mps 750 mmHg 50%
16:00 +28°C° 0 mm 5 mps 750 mmHg 48%
17:00 +26°C° 0.2 mm 5 mps 750 mmHg 56%
18:00 +25°C° 0.2 mm 4 mps 750 mmHg 65%
19:00 +22°C° 0.2 mm 3 mps 750 mmHg 73%
20:00 +21°C° 0.1 mm 3 mps 750 mmHg 78%
21:00 +20°C° 0.1 mm 3 mps 750 mmHg 82%
22:00 +19°C° 0.1 mm 3 mps 750 mmHg 87%
23:00 +18°C° 0 mm 3 mps 750 mmHg 90%

Day after tomorrow, 29 July, Thursday

Time Temperature Precipitation Wind Pressure Humidity
00:00 +17°C° 0 mm 3 mps 750 mmHg 92%
01:00 +16°C° 0 mm 3 mps 750 mmHg 95%
02:00 +16°C° 0 mm 3 mps 750 mmHg 95%
03:00 +16°C° 0 mm 3 mps 750 mmHg 96%
04:00 +14°C° 0 mm 3 mps 750 mmHg 96%
05:00 +17°C° 0 mm 3 mps 750 mmHg 90%
06:00 +18°C° 0 mm 4 mps 750 mmHg 84%
07:00 +20°C° 0 mm 4 mps 750 mmHg 77%
08:00 +21°C° 0 mm 5 mps 750 mmHg 67%
09:00 +23°C° 0 mm 6 mps 750 mmHg 57%
10:00 +26°C° 0 mm 7 mps 750 mmHg 47%
11:00 +27°C° 0 mm 7 mps 749 mmHg 42%
12:00 +27°C° 0 mm 7 mps 749 mmHg 38%
13:00 +28°C° 0 mm 8 mps 749 mmHg 34%
14:00 +28°C° 0 mm 8 mps 749 mmHg 37%
15:00 +27°C° 0 mm 7 mps 749 mmHg 39%
16:00 +26°C° 0 mm 7 mps 749 mmHg 42%
17:00 +24°C° 0 mm 6 mps 749 mmHg 45%
18:00 +23°C° 0 mm 5 mps 749 mmHg 49%
19:00 +22°C° 0 mm 3 mps 748 mmHg 53%
20:00 +21°C° 0 mm 3 mps 749 mmHg 55%
21:00 +19°C° 0 mm 3 mps 749 mmHg 56%
22:00 +18°C° 0 mm 2 mps 749 mmHg 58%
23:00 +17°C° 0 mm 3 mps 749 mmHg 59%

30 July, Friday

Time Temperature Precipitation Wind Pressure Humidity
00:00 +16°C° 0 mm 3 mps 749 mmHg 60%
01:00 +14°C° 0 mm 3 mps 749 mmHg 61%
02:00 +14°C° 0 mm 3 mps 749 mmHg 64%
03:00 +14°C° 0 mm 2 mps 749 mmHg 66%
04:00 +14°C° 0 mm 2 mps 749 mmHg 68%
05:00 +16°C° 0 mm 3 mps 749 mmHg 64%
06:00 +17°C° 0 mm 3 mps 749 mmHg 59%
07:00 +19°C° 0 mm 3 mps 749 mmHg 54%
08:00 +20°C° 0 mm 4 mps 748 mmHg 50%
09:00 +22°C° 0 mm 5 mps 748 mmHg 45%
10:00 +23°C° 0 mm 5 mps 748 mmHg 40%
11:00 +24°C° 0 mm 6 mps 748 mmHg 38%
12:00 +26°C° 0 mm 6 mps 748 mmHg 37%
13:00 +27°C° 0 mm 6 mps 747 mmHg 35%
14:00 +27°C° 0 mm 6 mps 747 mmHg 35%
15:00 +27°C° 0 mm 6 mps 747 mmHg 36%
16:00 +27°C° 0 mm 6 mps 747 mmHg 36%
17:00 +25°C° 0 mm 5 mps 747 mmHg 40%
18:00 +23°C° 0 mm 4 mps 747 mmHg 44%
19:00 +22°C° 0 mm 3 mps 746 mmHg 48%
20:00 +20°C° 0 mm 3 mps 747 mmHg 51%
21:00 +19°C° 0 mm 2 mps 747 mmHg 54%
22:00 +18°C° 0 mm 2 mps 747 mmHg 57%
23:00 +17°C° 0 mm 2 mps 747 mmHg 59%

31 July, Saturday

Time Temperature Precipitation Wind Pressure Humidity
00:00 +17°C° 0 mm 2 mps 747 mmHg 60%
01:00 +18°C° 0 mm 1 mps 747 mmHg 61%
02:00 +16°C° 0 mm 2 mps 746 mmHg 63%
03:00 +16°C° 0 mm 2 mps 746 mmHg 64%
04:00 +16°C° 0 mm 2 mps 746 mmHg 65%
05:00 +17°C° 0 mm 3 mps 746 mmHg 63%
06:00 +19°C° 0 mm 3 mps 746 mmHg 62%
07:00 +20°C° 0 mm 4 mps 746 mmHg 60%
08:00 +21°C° 0.1 mm 4 mps 746 mmHg 57%
09:00 +23°C° 0.1 mm 5 mps 746 mmHg 55%
10:00 +24°C° 0.1 mm 6 mps 746 mmHg 53%
11:00 +23°C° 0.1 mm 6 mps 746 mmHg 51%
12:00 +23°C° 0.1 mm 7 mps 746 mmHg 49%
13:00 +23°C° 0.1 mm 7 mps 746 mmHg 47%
14:00 +23°C° 0 mm 7 mps 746 mmHg 46%
15:00 +24°C° 0 mm 7 mps 746 mmHg 44%
16:00 +24°C° 0 mm 8 mps 746 mmHg 42%
17:00 +23°C° 0 mm 7 mps 746 mmHg 46%
18:00 +22°C° 0 mm 6 mps 746 mmHg 51%
19:00 +21°C° 0 mm 5 mps 746 mmHg 55%
20:00 +20°C° 0 mm 5 mps 746 mmHg 61%
21:00 +17°C° 0 mm 5 mps 746 mmHg 66%
22:00 +16°C° 0 mm 5 mps 747 mmHg 71%
23:00 +15°C° 0 mm 4 mps 747 mmHg 78%

1 August, Sunday

Time Temperature Precipitation Wind Pressure Humidity
00:00 +14°C° 0 mm 4 mps 747 mmHg 84%
01:00 +13°C° 0 mm 3 mps 747 mmHg 91%
02:00 +13°C° 0 mm 3 mps 747 mmHg 92%
03:00 +12°C° 0 mm 3 mps 747 mmHg 94%
04:00 +12°C° 0 mm 3 mps 747 mmHg 95%
05:00 +13°C° 0 mm 4 mps 747 mmHg 87%
06:00 +15°C° 0 mm 4 mps 748 mmHg 79%
07:00 +16°C° 0 mm 5 mps 748 mmHg 70%
08:00 +19°C° 0 mm 5 mps 748 mmHg 61%
09:00 +20°C° 0 mm 6 mps 748 mmHg 52%
10:00 +22°C° 0 mm 6 mps 747 mmHg 44%
11:00 +23°C° 0 mm 6 mps 747 mmHg 41%
12:00 +24°C° 0 mm 6 mps 747 mmHg 38%
13:00 +26°C° 0 mm 6 mps 747 mmHg 36%
14:00 +24°C° 0 mm 6 mps 747 mmHg 39%
15:00 +23°C° 0 mm 5 mps 747 mmHg 42%
16:00 +23°C° 0 mm 5 mps 746 mmHg 46%
17:00 +22°C° 0.1 mm 5 mps 746 mmHg 51%
18:00 +21°C° 0.1 mm 4 mps 746 mmHg 56%
19:00 +20°C° 0.1 mm 3 mps 746 mmHg 62%
20:00 +19°C° 0.1 mm 3 mps 747 mmHg 69%
21:00 +17°C° 0.1 mm 3 mps 747 mmHg 77%
22:00 +16°C° 0.1 mm 3 mps 747 mmHg 85%
23:00 +14°C° 0 mm 3 mps 747 mmHg 88%
Show more